Omaha, Nebraska, United States (68101)
Lat: 41.26N, Lon: 95.94W
Wx Zone: NEZ052
Local Info
Past Weather Observations for Today

NOTE: This archive is for the closest National Weather Service station to Omaha. Information may differ from the station used for current weather conditions.

Click here for Long-term Archive

Time Weather Temperature Dewpoint Humidity Pressure Winds Precip Visibility
21:52
Overcast
Drizzle
43°F / 6°C 41°F / 5°C 93% 29.68 in
(1005 mb)
S 19.6 mph
(S 32 kph)
0.00 in
(0.00 mm)
3SM
20:52
Overcast
Drizzle
43°F / 6°C 41°F / 5°C 93% 29.68 in
(1005 mb)
S 18.4 mph
(S 30 kph)
0.00 in
(0.00 mm)
3SM
19:52
Overcast
Drizzle
43°F / 6°C 41°F / 5°C 93% 29.71 in
(1006 mb)
SSE 17.3 mph
(SSE 28 kph)
0.01 in
(0.25 mm)
4SM
18:52
Overcast
Drizzle
43°F / 6°C 39°F / 4°C 87% 29.71 in
(1006 mb)
S 15 mph
(S 24 kph)
0.00 in
(0.00 mm)
5SM
17:52
Overcast
43°F / 6°C 39°F / 4°C 87% 29.71 in
(1006 mb)
S 17.3 mph
(S 28 kph)
- 7SM
16:52
Overcast
41°F / 5°C 37°F / 3°C 87% 29.74 in
(1007 mb)
SSE 16.1 mph
(SSE 26 kph)
- 10SM
15:52
Overcast
Fog And Mist
43°F / 6°C 37°F / 3°C 81% 29.74 in
(1007 mb)
S 15 mph
(S 24 kph)
- 10SM
15:40
Overcast
Fog And Mist
43°F / 6°C 37°F / 3°C 81% 29.74 in
(1007 mb)
S 13.8 mph
(S 22 kph)
- 10SM
14:52
Overcast
Fog And Mist
43°F / 6°C 39°F / 4°C 87% 29.77 in
(1008 mb)
S 20.7 mph
(S 33 kph)
- 6SM
13:52
Overcast
Fog And Mist
43°F / 6°C 39°F / 4°C 87% 29.77 in
(1008 mb)
S 21.9 mph
(S 35 kph)
- 6SM
12:52
Overcast
Fog And Mist
43°F / 6°C 37°F / 3°C 81% 29.77 in
(1008 mb)
S 20.7 mph
(S 33 kph)
- 6SM
11:52
Overcast
Fog And Mist
41°F / 5°C 37°F / 3°C 87% 29.83 in
(1010 mb)
S 19.6 mph
(S 32 kph)
- 6SM
10:52
Overcast
Fog And Mist
41°F / 5°C 37°F / 3°C 87% 29.86 in
(1011 mb)
S 19.6 mph
(S 32 kph)
- 6SM
09:52
Overcast
Fog And Mist
39°F / 4°C 37°F / 3°C 93% 29.89 in
(1012 mb)
S 19.6 mph
(S 32 kph)
- 4SM
08:52
Overcast
Fog And Mist
37°F / 3°C 36°F / 2°C 93% 29.89 in
(1012 mb)
S 16.1 mph
(S 26 kph)
- 4SM
07:52
Overcast
Fog And Mist
37°F / 3°C 36°F / 2°C 93% 29.89 in
(1012 mb)
SSE 19.6 mph
(SSE 32 kph)
- 5SM
06:52
Overcast
Fog And Mist
37°F / 3°C 36°F / 2°C 93% 29.92 in
(1013 mb)
S 13.8 mph
(S 22 kph)
- 4SM
05:52
Overcast
Fog And Mist
37°F / 3°C 36°F / 2°C 93% 29.95 in
(1014 mb)
SSE 11.5 mph
(SSE 19 kph)
- 4SM
04:52
Overcast
Fog And Mist
37°F / 3°C 36°F / 2°C 93% 29.95 in
(1014 mb)
SSE 10.4 mph
(SSE 17 kph)
- 4SM
03:52
Overcast
Fog And Mist
36°F / 2°C 34°F / 1°C 93% 29.98 in
(1015 mb)
SSE 15 mph
(SSE 24 kph)
- 4SM
02:52
Overcast
Fog And Mist
36°F / 2°C 36°F / 2°C 100% 30.01 in
(1016 mb)
S 11.5 mph
(S 19 kph)
- 4SM
01:52
Overcast
Fog And Mist
37°F / 3°C 36°F / 2°C 93% 30.01 in
(1016 mb)
SSE 12.7 mph
(SSE 20 kph)
- 3SM
00:59
Overcast
Fog And Mist
36°F / 2°C 36°F / 2°C 100% 30.01 in
(1016 mb)
SSE 10.4 mph
(SSE 17 kph)
- 3SM
00:52
Overcast
Fog And Mist
36°F / 2°C 36°F / 2°C 100% 30.01 in
(1016 mb)
SSE 9.2 mph
(SSE 15 kph)
- 1 1/2SM
Time Weather Temperature Dewpoint Humidity Pressure Winds Precip Visibility


Weather for websites

WeatherForYou.com, LLC is not responsible for any damages or problems caused by this service. Current weather conditions are obtained from the closest station including government and personal stations which may have varying degrees of accuracy. Weather forecasts are derived from the NOAA NDFD. Like all things, this site belongs to Jesus Christ... He just trusts me to maintain it. If you have any questions or comments email webmaster@weatherforyou.com

Copyright © 2014, WeatherForYou.com LLC. All rights reserved.